| time (UTC) | temp C | wind direction | speed KPH | gust KPH | rain 1hr cm | rain 24hr cm | rain mn cm | humidity % | barometer mb |
| 20260831031025 | 18 | 198 | 0.0 | 4.8 | 0.00 | 0.00 | 0.00 | 64 | 1015.3 |
| 20260831030526 | 19 | 198 | 1.6 | 4.8 | 0.00 | 0.00 | 0.00 | 63 | 1015.3 |
| 20260831030025 | 19 | 22 | 1.6 | 4.8 | 0.00 | 0.00 | 0.00 | 63 | 1015.2 |
| 20260831025524 | 19 | 229 | 0.0 | 4.8 | 0.00 | 0.00 | 0.00 | 62 | 1015.2 |
| 20260831025024 | 20 | 194 | 0.0 | 3.2 | 0.00 | 0.00 | 0.00 | 62 | 1015.2 |
| 20260831024524 | 20 | 194 | 0.0 | 3.2 | 0.00 | 0.00 | 0.00 | 61 | 1015.1 |
| 20260831024023 | 20 | 242 | 0.0 | 3.2 | 0.00 | 0.00 | 0.00 | 60 | 1015.1 |
| 20260831023521 | 20 | 242 | 0.0 | 3.2 | 0.00 | 0.00 | 0.00 | 59 | 1015.2 |
| 20260831023021 | 21 | 246 | 0.0 | 4.8 | 0.00 | 0.00 | 0.00 | 58 | 1015.2 |
| 20260831022520 | 21 | 246 | 0.0 | 4.8 | 0.00 | 0.00 | 0.00 | 57 | 1015.2 |
| 20260831022018 | 21 | 246 | 1.6 | 6.4 | 0.00 | 0.00 | 0.00 | 57 | 1015.3 |
| 20260831021519 | 21 | 246 | 1.6 | 6.4 | 0.00 | 0.00 | 0.00 | 56 | 1015.2 |
| 20260831021018 | 22 | 246 | 1.6 | 11.3 | 0.00 | 0.00 | 0.00 | 53 | 1015.2 |
| 20260831020524 | 23 | 289 | 3.2 | 9.7 | 0.00 | 0.00 | 0.00 | 53 | 1015.3 |
| 20260831020518 | 22 | 265 | 3.2 | 11.3 | 0.00 | 0.00 | 0.00 | 53 | 1015.2 |
| 20260831015518 | 23 | 311 | 3.2 | 8.0 | 0.00 | 0.00 | 0.00 | 49 | 1015.3 |
| 20260831015019 | 23 | 296 | 3.2 | 8.0 | 0.00 | 0.00 | 0.00 | 46 | 1015.3 |
| 20260831014519 | 23 | 10 | 1.6 | 8.0 | 0.00 | 0.00 | 0.00 | 45 | 1015.4 |
| 20260831014019 | 24 | 5 | 3.2 | 8.0 | 0.00 | 0.00 | 0.00 | 45 | 1015.3 |
| 20260831013520 | 24 | 36 | 3.2 | 8.0 | 0.00 | 0.00 | 0.00 | 45 | 1015.3 |
| 20260831013019 | 24 | 78 | 1.6 | 8.0 | 0.00 | 0.00 | 0.00 | 45 | 1015.3 |
| 20260831012523 | 24 | 19 | 3.2 | 8.0 | 0.00 | 0.00 | 0.00 | 44 | 1015.4 |
| 20260831012518 | 24 | 19 | 1.6 | 8.0 | 0.00 | 0.00 | 0.00 | 44 | 1015.4 |
| 20260831011519 | 25 | 36 | 1.6 | 8.0 | 0.00 | 0.00 | 0.00 | 44 | 1015.4 |
| 20260831011019 | 25 | 69 | 3.2 | 8.0 | 0.00 | 0.00 | 0.00 | 44 | 1015.4 |
| 20260831010519 | 24 | 22 | 1.6 | 8.0 | 0.00 | 0.00 | 0.00 | 43 | 1015.4 |
| 20260831010021 | 25 | 22 | 1.6 | 8.0 | 0.00 | 0.00 | 0.00 | 43 | 1015.6 |
| 20260831005519 | 25 | 0 | 1.6 | 8.0 | 0.00 | 0.00 | 0.00 | 42 | 1015.6 |
| 20260831005018 | 25 | 9 | 3.2 | 14.5 | 0.00 | 0.00 | 0.00 | 43 | 1015.6 |
| 20260831004519 | 25 | 19 | 3.2 | 14.5 | 0.00 | 0.00 | 0.00 | 43 | 1015.7 |
| 20260831004018 | 25 | 180 | 1.6 | 4.8 | 0.00 | 0.00 | 0.00 | 42 | 1015.7 |
| 20260831003518 | 25 | 177 | 1.6 | 11.3 | 0.00 | 0.00 | 0.00 | 41 | 1015.9 |
| 20260831003019 | 25 | 25 | 3.2 | 11.3 | 0.00 | 0.00 | 0.00 | 42 | 1015.9 |
| 20260831002519 | 25 | 17 | 3.2 | 6.4 | 0.00 | 0.00 | 0.00 | 42 | 1015.9 |
| 20260831002024 | 25 | 265 | 3.2 | 12.9 | 0.00 | 0.00 | 0.00 | 42 | 1016.0 |
| 20260831002019 | 25 | 36 | 3.2 | 6.4 | 0.00 | 0.00 | 0.00 | 43 | 1016.0 |
| 20260831001024 | 25 | 265 | 1.6 | 4.8 | 0.00 | 0.00 | 0.00 | 41 | 1016.0 |
| 20260831001020 | 25 | 355 | 1.6 | 12.9 | 0.00 | 0.00 | 0.00 | 42 | 1016.0 |
| 20260831000023 | 25 | 315 | 1.6 | 6.4 | 0.00 | 0.00 | 0.00 | 41 | 1016.1 |
| 20260831000019 | 25 | 289 | 1.6 | 6.4 | 0.00 | 0.00 | 0.00 | 42 | 1016.1 |
| 20260830235018 | 25 | 0 | 1.6 | 4.8 | 0.00 | 0.00 | 0.00 | 41 | 1016.1 |
| 20260830234524 | 25 | 269 | 1.6 | 4.8 | 0.00 | 0.00 | 0.00 | 41 | 1016.3 |
| 20260830234519 | 25 | 114 | 1.6 | 4.8 | 0.00 | 0.00 | 0.00 | 41 | 1016.2 |
| 20260830233518 | 25 | 21 | 1.6 | 4.8 | 0.00 | 0.00 | 0.00 | 43 | 1016.4 |
| 20260830233019 | 24 | 17 | 1.6 | 12.9 | 0.00 | 0.00 | 0.00 | 43 | 1016.6 |
| 20260830232520 | 24 | 33 | 1.6 | 12.9 | 0.00 | 0.00 | 0.00 | 43 | 1016.6 |
| 20260830232018 | 24 | 38 | 4.8 | 14.5 | 0.00 | 0.00 | 0.00 | 42 | 1016.7 |
| 20260830231514 | 24 | 20 | 3.2 | 14.5 | 0.00 | 0.00 | 0.00 | 42 | 1016.8 |
| 20260830231019 | 23 | 169 | 3.2 | 9.7 | 0.00 | 0.00 | 0.00 | 43 | 1016.9 |
| 20260830231014 | 24 | 30 | 1.6 | 9.7 | 0.00 | 0.00 | 0.00 | 43 | 1016.8 |
| 20260830230513 | 23 | 163 | 3.2 | 8.0 | 0.00 | 0.00 | 0.00 | 44 | 1016.9 |
| 20260830230126 | 24 | 65 | 3.2 | 9.7 | 0.00 | 0.00 | 0.00 | 42 | 1017.0 |
| 20260830225012 | 24 | 91 | 3.2 | 8.0 | 0.00 | 0.00 | 0.00 | 43 | 1017.1 |
| 20260830224510 | 24 | 40 | 3.2 | 8.0 | 0.00 | 0.00 | 0.00 | 43 | 1017.1 |
| 20260830224010 | 24 | 13 | 3.2 | 8.0 | 0.00 | 0.00 | 0.00 | 43 | 1017.2 |
| 20260830223510 | 23 | 0 | 3.2 | 9.7 | 0.00 | 0.00 | 0.00 | 43 | 1017.3 |
| 20260830223011 | 24 | 106 | 1.6 | 9.7 | 0.00 | 0.00 | 0.00 | 45 | 1017.5 |
| 20260830222508 | 23 | 215 | 3.2 | 11.3 | 0.00 | 0.00 | 0.00 | 44 | 1017.6 |
| 20260830222007 | 23 | 82 | 3.2 | 11.3 | 0.00 | 0.00 | 0.00 | 44 | 1017.7 |
| 20260830221506 | 23 | 327 | 1.6 | 6.4 | 0.00 | 0.00 | 0.00 | 44 | 1017.8 |
| 20260830221012 | 23 | 308 | 4.8 | 16.1 | 0.00 | 0.00 | 0.00 | 44 | 1017.9 |
| 20260830221007 | 23 | 257 | 1.6 | 8.0 | 0.00 | 0.00 | 0.00 | 43 | 1017.8 |
| 20260830220006 | 23 | 11 | 4.8 | 16.1 | 0.00 | 0.00 | 0.00 | 45 | 1018.0 |
| 20260830215506 | 22 | 0 | 1.6 | 12.9 | 0.00 | 0.00 | 0.00 | 45 | 1018.1 |
| 20260830215006 | 22 | 288 | 1.6 | 8.0 | 0.00 | 0.00 | 0.00 | 45 | 1018.1 |
| 20260830214506 | 22 | 331 | 3.2 | 12.9 | 0.00 | 0.00 | 0.00 | 46 | 1018.2 |
| 20260830214010 | 23 | 180 | 3.2 | 14.5 | 0.00 | 0.00 | 0.00 | 44 | 1018.4 |
| 20260830214005 | 23 | 260 | 3.2 | 14.5 | 0.00 | 0.00 | 0.00 | 44 | 1018.3 |
| 20260830213504 | 23 | 111 | 1.6 | 14.5 | 0.00 | 0.00 | 0.00 | 46 | 1018.4 |
| 20260830212504 | 22 | 49 | 3.2 | 14.5 | 0.00 | 0.00 | 0.00 | 46 | 1018.5 |
| 20260830212004 | 22 | 24 | 4.8 | 12.9 | 0.00 | 0.00 | 0.00 | 47 | 1018.6 |
| 20260830211504 | 22 | 308 | 4.8 | 11.3 | 0.00 | 0.00 | 0.00 | 45 | 1018.6 |
| 20260830211004 | 22 | 178 | 4.8 | 11.3 | 0.00 | 0.00 | 0.00 | 46 | 1018.7 |
| 20260830210505 | 22 | 161 | 3.2 | 9.7 | 0.00 | 0.00 | 0.00 | 46 | 1018.6 |
| 20260830210010 | 22 | 167 | 3.2 | 8.0 | 0.00 | 0.00 | 0.00 | 46 | 1018.7 |
| 20260830205504 | 21 | 92 | 3.2 | 8.0 | 0.00 | 0.00 | 0.00 | 47 | 1018.7 |
| 20260830205002 | 21 | 39 | 3.2 | 8.0 | 0.00 | 0.00 | 0.00 | 46 | 1018.9 |
| 20260830204502 | 22 | 12 | 4.8 | 11.3 | 0.00 | 0.00 | 0.00 | 47 | 1019.0 |
| 20260830204002 | 22 | 145 | 4.8 | 11.3 | 0.00 | 0.00 | 0.00 | 46 | 1019.0 |
| 20260830203501 | 21 | 157 | 4.8 | 9.7 | 0.00 | 0.00 | 0.00 | 48 | 1019.1 |
| 20260830203002 | 21 | 190 | 3.2 | 8.0 | 0.00 | 0.00 | 0.00 | 47 | 1019.1 |
| 20260830202502 | 21 | 138 | 4.8 | 11.3 | 0.00 | 0.00 | 0.00 | 47 | 1019.1 |
| 20260830202002 | 21 | 26 | 4.8 | 12.9 | 0.00 | 0.00 | 0.00 | 48 | 1019.2 |
| 20260830201502 | 21 | 22 | 3.2 | 12.9 | 0.00 | 0.00 | 0.00 | 49 | 1019.3 |
| 20260830201002 | 21 | 300 | 3.2 | 8.0 | 0.00 | 0.00 | 0.00 | 50 | 1019.4 |
| 20260830200504 | 21 | 276 | 3.2 | 8.0 | 0.00 | 0.00 | 0.00 | 50 | 1019.4 |
| 20260830200000 | 21 | 281 | 3.2 | 8.0 | 0.00 | 0.00 | 0.00 | 49 | 1019.5 |
| 20260830195500 | 20 | 355 | 3.2 | 8.0 | 0.00 | 0.00 | 0.00 | 51 | 1019.6 |
| 20260830195000 | 20 | 331 | 3.2 | 11.3 | 0.00 | 0.00 | 0.00 | 50 | 1019.6 |
| 20260830194500 | 20 | 55 | 1.6 | 11.3 | 0.00 | 0.00 | 0.00 | 53 | 1019.7 |
| 20260830193959 | 20 | 34 | 1.6 | 9.7 | 0.00 | 0.00 | 0.00 | 52 | 1019.8 |
| 20260830193501 | 20 | 274 | 3.2 | 9.7 | 0.00 | 0.00 | 0.00 | 53 | 1019.8 |
| 20260830193000 | 20 | 269 | 3.2 | 9.7 | 0.00 | 0.00 | 0.00 | 50 | 1019.9 |
| 20260830192500 | 21 | 201 | 1.6 | 9.7 | 0.00 | 0.00 | 0.00 | 48 | 1019.9 |
| 20260830192000 | 20 | 175 | 1.6 | 6.4 | 0.00 | 0.00 | 0.00 | 52 | 1019.9 |
| 20260830191501 | 20 | 87 | 3.2 | 6.4 | 0.00 | 0.00 | 0.00 | 51 | 1020.0 |
| 20260830190958 | 20 | 219 | 3.2 | 6.4 | 0.00 | 0.00 | 0.00 | 51 | 1020.1 |
| 20260830190459 | 20 | 210 | 1.6 | 6.4 | 0.00 | 0.00 | 0.00 | 53 | 1020.1 |
| 20260830190000 | 20 | 319 | 1.6 | 8.0 | 0.00 | 0.00 | 0.00 | 52 | 1020.2 |
| 20260830185458 | 20 | 349 | 4.8 | 16.1 | 0.00 | 0.00 | 0.00 | 54 | 1020.3 |
| 20260830184956 | 19 | 76 | 4.8 | 16.1 | 0.00 | 0.00 | 0.00 | 55 | 1020.3 |
| 20260830184503 | 19 | 307 | 3.2 | 6.4 | 0.00 | 0.00 | 0.00 | 54 | 1020.4 |
| 20260830184456 | 19 | 332 | 3.2 | 14.5 | 0.00 | 0.00 | 0.00 | 55 | 1020.3 |
| 20260830183956 | 19 | 5 | 3.2 | 14.5 | 0.00 | 0.00 | 0.00 | 55 | 1020.4 |
| 20260830183000 | 19 | 182 | 3.2 | 14.5 | 0.00 | 0.00 | 0.00 | 56 | 1020.4 |
| 20260830182956 | 19 | 302 | 3.2 | 6.4 | 0.00 | 0.00 | 0.00 | 54 | 1020.5 |
| 20260830181956 | 18 | 195 | 3.2 | 14.5 | 0.00 | 0.00 | 0.00 | 57 | 1020.5 |
| 20260830181455 | 18 | 44 | 1.6 | 8.0 | 0.00 | 0.00 | 0.00 | 58 | 1020.4 |
| 20260830180956 | 18 | 81 | 3.2 | 8.0 | 0.00 | 0.00 | 0.00 | 57 | 1020.5 |
| 20260830180502 | 18 | 67 | 1.6 | 6.4 | 0.00 | 0.00 | 0.00 | 59 | 1020.6 |
| 20260830180456 | 18 | 338 | 3.2 | 12.9 | 0.00 | 0.00 | 0.00 | 58 | 1020.5 |
| 20260830175954 | 18 | 170 | 3.2 | 12.9 | 0.00 | 0.00 | 0.00 | 58 | 1020.5 |
| 20260830174953 | 18 | 106 | 1.6 | 6.4 | 0.00 | 0.00 | 0.00 | 60 | 1020.6 |
| 20260830174455 | 18 | 22 | 1.6 | 6.4 | 0.00 | 0.00 | 0.00 | 60 | 1020.6 |
| 20260830173958 | 18 | 178 | 1.6 | 4.8 | 0.00 | 0.00 | 0.00 | 61 | 1020.6 |
| 20260830173954 | 18 | 323 | 1.6 | 6.4 | 0.00 | 0.00 | 0.00 | 60 | 1020.5 |
| 20260830172952 | 17 | 15 | 1.6 | 4.8 | 0.00 | 0.00 | 0.00 | 62 | 1020.6 |
| 20260830172459 | 17 | 46 | 1.6 | 4.8 | 0.00 | 0.00 | 0.00 | 66 | 1020.6 |
| 20260830172454 | 17 | 107 | 1.6 | 6.4 | 0.00 | 0.00 | 0.00 | 61 | 1020.5 |
| 20260830171953 | 18 | 347 | 1.6 | 6.4 | 0.00 | 0.00 | 0.00 | 62 | 1020.6 |
| 20260830170953 | 17 | 43 | 1.6 | 4.8 | 0.00 | 0.00 | 0.00 | 66 | 1020.7 |
| 20260830170459 | 16 | 96 | 0.0 | 0.0 | 0.00 | 0.00 | 0.00 | 70 | 1020.6 |
| 20260830170451 | 17 | 341 | 0.0 | 4.8 | 0.00 | 0.00 | 0.00 | 69 | 1020.7 |
| 20260830165952 | 16 | 12 | 0.0 | 0.0 | 0.00 | 0.00 | 0.00 | 69 | 1020.7 |
| 20260830164951 | 16 | 235 | 0.0 | 0.0 | 0.00 | 0.00 | 0.00 | 71 | 1020.7 |
| 20260830164451 | 15 | 234 | 0.0 | 0.0 | 0.00 | 0.00 | 0.00 | 71 | 1020.7 |
| 20260830163949 | 15 | 268 | 0.0 | 0.0 | 0.00 | 0.00 | 0.00 | 77 | 1020.7 |
| 20260830163450 | 15 | 268 | 0.0 | 0.0 | 0.00 | 0.00 | 0.00 | 76 | 1020.7 |
| 20260830162949 | 14 | 268 | 0.0 | 0.0 | 0.00 | 0.00 | 0.00 | 78 | 1020.8 |
| 20260830162451 | 13 | 268 | 0.0 | 0.0 | 0.00 | 0.00 | 0.00 | 80 | 1020.8 |
| 20260830161949 | 13 | 268 | 0.0 | 0.0 | 0.00 | 0.00 | 0.00 | 83 | 1020.9 |
| 20260830161453 | 12 | 234 | 0.0 | 0.0 | 0.00 | 0.00 | 0.00 | 87 | 1021.0 |
| 20260830161449 | 13 | 234 | 0.0 | 0.0 | 0.00 | 0.00 | 0.00 | 83 | 1021.0 |
| 20260830160454 | 11 | 242 | 0.0 | 0.0 | 0.00 | 0.00 | 0.00 | 88 | 1021.0 |
| 20260830160450 | 12 | 241 | 0.0 | 0.0 | 0.00 | 0.00 | 0.00 | 88 | 1021.0 |
| 20260830155450 | 11 | 259 | 0.0 | 0.0 | 0.00 | 0.00 | 0.00 | 90 | 1021.1 |
| 20260830154949 | 11 | 240 | 0.0 | 0.0 | 0.00 | 0.00 | 0.00 | 91 | 1021.1 |
| 20260830154451 | 10 | 226 | 0.0 | 0.0 | 0.00 | 0.00 | 0.00 | 92 | 1021.0 |
| 20260830153949 | 10 | 225 | 0.0 | 0.0 | 0.00 | 0.00 | 0.00 | 92 | 1020.8 |
| 20260830153450 | 10 | 225 | 0.0 | 0.0 | 0.00 | 0.00 | 0.00 | 92 | 1020.9 |
| 20260830152949 | 10 | 225 | 0.0 | 0.0 | 0.00 | 0.00 | 0.00 | 92 | 1020.9 |
| 20260830152451 | 10 | 225 | 0.0 | 0.0 | 0.00 | 0.00 | 0.00 | 92 | 1021.0 |
| 20260830151949 | 10 | 225 | 0.0 | 0.0 | 0.00 | 0.00 | 0.00 | 93 | 1021.0 |
| 20260830151450 | 9 | 225 | 0.0 | 0.0 | 0.00 | 0.00 | 0.00 | 93 | 1021.1 |
| 20260830150951 | 9 | 221 | 0.0 | 0.0 | 0.00 | 0.00 | 0.00 | 94 | 1021.2 |
| 20260830150455 | 8 | 219 | 0.0 | 0.0 | 0.00 | 0.00 | 0.00 | 95 | 1021.0 |
| 20260830150451 | 9 | 219 | 0.0 | 0.0 | 0.00 | 0.00 | 0.00 | 95 | 1021.1 |
| 20260830145450 | 8 | 217 | 0.0 | 0.0 | 0.00 | 0.00 | 0.00 | 94 | 1021.1 |
| 20260830144953 | 8 | 217 | 0.0 | 0.0 | 0.00 | 0.00 | 0.00 | 94 | 1021.0 |
| 20260830144948 | 8 | 217 | 0.0 | 0.0 | 0.00 | 0.00 | 0.00 | 94 | 1021.0 |
| 20260830143948 | 8 | 217 | 0.0 | 0.0 | 0.00 | 0.00 | 0.00 | 94 | 1021.1 |
| 20260830143445 | 7 | 217 | 0.0 | 0.0 | 0.00 | 0.00 | 0.00 | 94 | 1021.0 |
| 20260830142943 | 7 | 217 | 0.0 | 0.0 | 0.00 | 0.00 | 0.00 | 93 | 1021.0 |
| 20260830142443 | 7 | 217 | 0.0 | 0.0 | 0.00 | 0.00 | 0.00 | 93 | 1021.0 |
| 20260830141945 | 7 | 217 | 0.0 | 0.0 | 0.00 | 0.00 | 0.00 | 93 | 1021.0 |
| 20260830141449 | 7 | 217 | 0.0 | 0.0 | 0.00 | 0.03 | 0.00 | 93 | 1021.0 |
| 20260830141445 | 7 | 217 | 0.0 | 0.0 | 0.00 | 0.00 | 0.00 | 93 | 1021.0 |
| 20260830140940 | 7 | 217 | 0.0 | 0.0 | 0.00 | 0.03 | 0.00 | 92 | 1021.0 |
| 20260830135940 | 7 | 217 | 0.0 | 0.0 | 0.00 | 0.03 | 0.00 | 92 | 1021.0 |
| 20260830135440 | 7 | 217 | 0.0 | 0.0 | 0.00 | 0.03 | 0.00 | 93 | 1021.0 |
| 20260830134943 | 7 | 217 | 0.0 | 0.0 | 0.00 | 0.03 | 0.00 | 93 | 1021.0 |
| 20260830134939 | 7 | 217 | 0.0 | 0.0 | 0.00 | 0.03 | 0.00 | 93 | 1021.1 |
| 20260830133939 | 7 | 217 | 0.0 | 0.0 | 0.00 | 0.03 | 0.00 | 93 | 1021.0 |
| 20260830133443 | 7 | 217 | 0.0 | 0.0 | 0.00 | 0.03 | 0.00 | 92 | 1020.9 |
| 20260830133437 | 7 | 217 | 0.0 | 0.0 | 0.00 | 0.03 | 0.00 | 93 | 1020.9 |
| 20260830132435 | 7 | 217 | 0.0 | 0.0 | 0.00 | 0.03 | 0.00 | 92 | 1020.8 |
| 20260830131936 | 7 | 217 | 0.0 | 0.0 | 0.00 | 0.03 | 0.00 | 92 | 1020.9 |
| 20260830131437 | 7 | 217 | 0.0 | 0.0 | 0.00 | 0.03 | 0.00 | 93 | 1020.9 |
| 20260830130935 | 7 | 217 | 0.0 | 0.0 | 0.00 | 0.03 | 0.00 | 93 | 1020.8 |
| 20260830130436 | 7 | 217 | 0.0 | 0.0 | 0.00 | 0.03 | 0.00 | 93 | 1020.8 |
| 20260830125935 | 7 | 217 | 0.0 | 0.0 | 0.00 | 0.03 | 0.00 | 93 | 1020.8 |
| 20260830125435 | 7 | 217 | 0.0 | 0.0 | 0.00 | 0.03 | 0.00 | 93 | 1020.8 |
| 20260830124935 | 7 | 217 | 0.0 | 0.0 | 0.00 | 0.03 | 0.00 | 93 | 1020.8 |
| 20260830124435 | 7 | 217 | 0.0 | 0.0 | 0.00 | 0.03 | 0.00 | 93 | 1020.7 |
| 20260830123933 | 7 | 218 | 0.0 | 0.0 | 0.00 | 0.03 | 0.00 | 93 | 1020.7 |
| 20260830123433 | 7 | 218 | 0.0 | 0.0 | 0.00 | 0.03 | 0.00 | 93 | 1020.6 |
| 20260830122934 | 7 | 218 | 0.0 | 0.0 | 0.00 | 0.03 | 0.00 | 92 | 1020.7 |
| 20260830122434 | 7 | 218 | 0.0 | 0.0 | 0.00 | 0.03 | 0.00 | 93 | 1020.6 |
| 20260830121934 | 7 | 226 | 0.0 | 0.0 | 0.00 | 0.03 | 0.00 | 92 | 1020.8 |
| 20260830121434 | 7 | 228 | 0.0 | 0.0 | 0.00 | 0.03 | 0.00 | 92 | 1020.8 |
| 20260830120933 | 7 | 228 | 0.0 | 0.0 | 0.00 | 0.03 | 0.00 | 92 | 1020.7 |
| 20260830120434 | 7 | 228 | 0.0 | 0.0 | 0.00 | 0.05 | 0.00 | 92 | 1020.7 |
| 20260830115933 | 7 | 228 | 0.0 | 0.0 | 0.00 | 0.13 | 0.00 | 92 | 1020.6 |
| 20260830115431 | 7 | 228 | 0.0 | 0.0 | 0.00 | 0.15 | 0.00 | 92 | 1020.7 |
| 20260830114931 | 7 | 228 | 0.0 | 0.0 | 0.00 | 0.15 | 0.00 | 91 | 1020.6 |
| 20260830114436 | 7 | 228 | 0.0 | 0.0 | 0.00 | 0.15 | 0.00 | 90 | 1020.6 |
| 20260830114432 | 7 | 228 | 0.0 | 0.0 | 0.00 | 0.15 | 0.00 | 90 | 1020.6 |
| 20260830113431 | 8 | 228 | 0.0 | 0.0 | 0.00 | 0.15 | 0.00 | 90 | 1020.5 |
| 20260830112936 | 8 | 228 | 0.0 | 0.0 | 0.00 | 0.15 | 0.00 | 91 | 1020.6 |
| 20260830112931 | 8 | 228 | 0.0 | 0.0 | 0.00 | 0.15 | 0.00 | 90 | 1020.6 |
| 20260830111932 | 8 | 228 | 0.0 | 0.0 | 0.00 | 0.15 | 0.00 | 92 | 1020.5 |
| 20260830111432 | 8 | 228 | 0.0 | 0.0 | 0.00 | 0.15 | 0.00 | 92 | 1020.5 |
| 20260830110929 | 8 | 228 | 0.0 | 0.0 | 0.00 | 0.15 | 0.00 | 91 | 1020.5 |
| 20260830110430 | 8 | 228 | 0.0 | 0.0 | 0.00 | 0.15 | 0.00 | 91 | 1020.5 |
| 20260830105930 | 8 | 228 | 0.0 | 0.0 | 0.00 | 0.15 | 0.00 | 91 | 1020.6 |
| 20260830105429 | 8 | 228 | 0.0 | 0.0 | 0.00 | 0.15 | 0.00 | 91 | 1020.6 |
| 20260830104928 | 8 | 229 | 0.0 | 0.0 | 0.00 | 0.15 | 0.00 | 92 | 1020.6 |
| 20260830104435 | 8 | 229 | 0.0 | 0.0 | 0.00 | 0.15 | 0.00 | 91 | 1020.7 |
| 20260830104429 | 8 | 229 | 0.0 | 0.0 | 0.00 | 0.15 | 0.00 | 91 | 1020.6 |
| 20260830103929 | 8 | 229 | 0.0 | 0.0 | 0.00 | 0.15 | 0.00 | 91 | 1020.8 |
| 20260830103540 | 8 | 229 | 0.0 | 0.0 | 0.00 | 0.15 | 0.00 | 92 | 1020.7 |
| 20260830102435 | 8 | 231 | 0.0 | 0.0 | 0.00 | 0.15 | 0.00 | 91 | 1020.6 |
| 20260830102429 | 8 | 231 | 0.0 | 0.0 | 0.00 | 0.15 | 0.00 | 92 | 1020.7 |
| 20260830101427 | 8 | 231 | 0.0 | 0.0 | 0.00 | 0.15 | 0.00 | 89 | 1020.6 |
| 20260830100926 | 8 | 231 | 0.0 | 0.0 | 0.00 | 0.15 | 0.00 | 88 | 1020.6 |
| 20260830100427 | 8 | 231 | 0.0 | 0.0 | 0.00 | 0.15 | 0.00 | 88 | 1020.7 |
| 20260830095926 | 8 | 231 | 0.0 | 0.0 | 0.00 | 0.15 | 0.00 | 89 | 1020.6 |
| 20260830095425 | 8 | 231 | 0.0 | 0.0 | 0.00 | 0.15 | 0.00 | 90 | 1020.7 |
| 20260830094925 | 8 | 231 | 0.0 | 0.0 | 0.00 | 0.15 | 0.00 | 89 | 1020.7 |
| 20260830094430 | 8 | 231 | 0.0 | 0.0 | 0.00 | 0.15 | 0.00 | 87 | 1020.6 |
| 20260830094426 | 8 | 231 | 0.0 | 0.0 | 0.00 | 0.15 | 0.00 | 88 | 1020.7 |
| 20260830094037 | 9 | 231 | 0.0 | 0.0 | 0.00 | 0.15 | 0.00 | 88 | 1020.5 |
| 20260830093424 | 9 | 231 | 0.0 | 0.0 | 0.00 | 0.15 | 0.00 | 86 | 1020.6 |
| 20260830093040 | 10 | 231 | 0.0 | 0.0 | 0.00 | 0.15 | 0.00 | 88 | 1020.5 |
| 20260830092923 | 9 | 231 | 0.0 | 0.0 | 0.00 | 0.15 | 0.00 | 88 | 1020.5 |
| 20260830091423 | 10 | 231 | 0.0 | 0.0 | 0.00 | 0.15 | 0.00 | 86 | 1020.5 |
| 20260830090923 | 10 | 231 | 0.0 | 0.0 | 0.00 | 0.15 | 0.00 | 84 | 1020.5 |
| 20260830090425 | 10 | 231 | 0.0 | 0.0 | 0.00 | 0.15 | 0.00 | 86 | 1020.4 |
| 20260830090421 | 10 | 231 | 0.0 | 0.0 | 0.00 | 0.15 | 0.00 | 85 | 1020.5 |
| 20260830085426 | 10 | 231 | 0.0 | 0.0 | 0.00 | 0.15 | 0.00 | 88 | 1020.4 |
| 20260830085420 | 10 | 231 | 0.0 | 0.0 | 0.00 | 0.15 | 0.00 | 87 | 1020.4 |
| 20260830084421 | 10 | 231 | 0.0 | 0.0 | 0.00 | 0.15 | 0.00 | 88 | 1020.5 |
| 20260830083921 | 10 | 231 | 0.0 | 0.0 | 0.00 | 0.15 | 0.00 | 89 | 1020.6 |
| 20260830083422 | 10 | 231 | 0.0 | 0.0 | 0.00 | 0.15 | 0.00 | 85 | 1020.7 |
| 20260830082921 | 10 | 231 | 0.0 | 0.0 | 0.00 | 0.15 | 0.00 | 85 | 1020.7 |
| 20260830082420 | 10 | 231 | 0.0 | 0.0 | 0.00 | 0.15 | 0.00 | 85 | 1020.8 |
| 20260830081921 | 10 | 231 | 0.0 | 0.0 | 0.00 | 0.15 | 0.00 | 84 | 1020.8 |
| 20260830081422 | 10 | 231 | 0.0 | 0.0 | 0.00 | 0.15 | 0.00 | 84 | 1020.7 |
| 20260830080920 | 11 | 231 | 0.0 | 0.0 | 0.00 | 0.15 | 0.00 | 84 | 1020.7 |
| 20260830080420 | 11 | 231 | 0.0 | 0.0 | 0.00 | 0.15 | 0.00 | 83 | 1020.7 |
| 20260830075922 | 11 | 231 | 0.0 | 0.0 | 0.00 | 0.15 | 0.00 | 82 | 1020.6 |
| 20260830075420 | 11 | 231 | 0.0 | 0.0 | 0.00 | 0.15 | 0.00 | 82 | 1020.6 |
| 20260830074921 | 11 | 231 | 0.0 | 0.0 | 0.00 | 0.15 | 0.00 | 82 | 1020.6 |
| 20260830074420 | 11 | 231 | 0.0 | 0.0 | 0.00 | 0.15 | 0.00 | 82 | 1020.6 |
| 20260830073920 | 11 | 231 | 0.0 | 0.0 | 0.00 | 0.15 | 0.00 | 82 | 1020.6 |
| 20260830073420 | 12 | 230 | 0.0 | 3.2 | 0.00 | 0.15 | 0.00 | 80 | 1020.6 |
| 20260830072922 | 12 | 230 | 0.0 | 3.2 | 0.00 | 0.15 | 0.00 | 81 | 1020.5 |
| 20260830072426 | 12 | 230 | 1.6 | 6.4 | 0.00 | 0.15 | 0.00 | 81 | 1020.5 |
| 20260830072421 | 12 | 230 | 1.6 | 4.8 | 0.00 | 0.15 | 0.00 | 80 | 1020.5 |
| 20260830071425 | 12 | 215 | 4.8 | 8.0 | 0.00 | 0.15 | 0.00 | 81 | 1020.4 |
| 20260830071421 | 12 | 238 | 3.2 | 8.0 | 0.00 | 0.15 | 0.00 | 81 | 1020.5 |
| 20260830070418 | 12 | 190 | 3.2 | 8.0 | 0.00 | 0.15 | 0.00 | 81 | 1020.4 |
| 20260830065919 | 12 | 213 | 3.2 | 8.0 | 0.00 | 0.15 | 0.15 | 80 | 1020.4 |
| 20260830065421 | 12 | 223 | 3.2 | 8.0 | 0.00 | 0.15 | 0.15 | 81 | 1020.3 |
| 20260830064918 | 12 | 212 | 3.2 | 8.0 | 0.00 | 0.15 | 0.15 | 81 | 1020.4 |
| 20260830064425 | 12 | 225 | 0.0 | 3.2 | 0.00 | 0.15 | 0.15 | 80 | 1020.4 |
| 20260830064420 | 12 | 234 | 1.6 | 8.0 | 0.00 | 0.15 | 0.15 | 81 | 1020.4 |
| 20260830063920 | 12 | 223 | 0.0 | 3.2 | 0.00 | 0.15 | 0.15 | 80 | 1020.4 |
| 20260830062919 | 12 | 267 | 0.0 | 6.4 | 0.00 | 0.15 | 0.15 | 80 | 1020.4 |
| 20260830062424 | 13 | 236 | 1.6 | 9.7 | 0.00 | 0.15 | 0.15 | 80 | 1020.4 |
| 20260830062420 | 12 | 244 | 0.0 | 9.7 | 0.00 | 0.15 | 0.15 | 80 | 1020.4 |
| 20260830061414 | 13 | 236 | 1.6 | 11.3 | 0.00 | 0.15 | 0.15 | 80 | 1020.4 |
| 20260830060915 | 13 | 222 | 1.6 | 11.3 | 0.00 | 0.15 | 0.15 | 80 | 1020.4 |
| 20260830060419 | 13 | 254 | 1.6 | 6.4 | 0.00 | 0.15 | 0.15 | 79 | 1020.4 |
| 20260830060415 | 13 | 240 | 0.0 | 6.4 | 0.00 | 0.15 | 0.15 | 79 | 1020.4 |
| 20260830055413 | 13 | 250 | 3.2 | 9.7 | 0.00 | 0.15 | 0.15 | 79 | 1020.4 |
| 20260830054913 | 13 | 213 | 3.2 | 9.7 | 0.00 | 0.15 | 0.15 | 79 | 1020.4 |
| 20260830054414 | 13 | 218 | 1.6 | 6.4 | 0.00 | 0.15 | 0.15 | 79 | 1020.4 |
| 20260830053913 | 13 | 232 | 1.6 | 9.7 | 0.00 | 0.15 | 0.15 | 78 | 1020.5 |
| 20260830053413 | 13 | 232 | 3.2 | 9.7 | 0.00 | 0.15 | 0.15 | 78 | 1020.5 |
| 20260830052913 | 13 | 211 | 3.2 | 8.0 | 0.00 | 0.15 | 0.15 | 78 | 1020.5 |
| 20260830052412 | 13 | 214 | 3.2 | 8.0 | 0.00 | 0.15 | 0.15 | 78 | 1020.5 |
| 20260830051914 | 13 | 215 | 3.2 | 11.3 | 0.00 | 0.15 | 0.15 | 78 | 1020.5 |
| 20260830051413 | 13 | 215 | 3.2 | 11.3 | 0.00 | 0.15 | 0.15 | 78 | 1020.5 |
| 20260830050911 | 13 | 255 | 1.6 | 11.3 | 0.00 | 0.15 | 0.15 | 78 | 1020.6 |
| 20260830050411 | 13 | 213 | 3.2 | 11.3 | 0.00 | 0.15 | 0.15 | 78 | 1020.6 |
| 20260830045910 | 13 | 236 | 3.2 | 11.3 | 0.00 | 0.15 | 0.15 | 78 | 1020.6 |
| 20260830045412 | 13 | 228 | 1.6 | 6.4 | 0.00 | 0.15 | 0.15 | 78 | 1020.5 |
| 20260830044913 | 14 | 258 | 1.6 | 8.0 | 0.00 | 0.15 | 0.15 | 77 | 1020.5 |
| 20260830044908 | 14 | 261 | 1.6 | 6.4 | 0.00 | 0.15 | 0.15 | 77 | 1020.6 |
| 20260830044408 | 14 | 247 | 3.2 | 9.7 | 0.00 | 0.15 | 0.15 | 77 | 1020.5 |
| 20260830043408 | 14 | 220 | 4.8 | 9.7 | 0.00 | 0.15 | 0.15 | 77 | 1020.5 |
| 20260830042905 | 14 | 221 | 4.8 | 9.7 | 0.00 | 0.15 | 0.15 | 77 | 1020.5 |
| 20260830042405 | 14 | 222 | 4.8 | 9.7 | 0.00 | 0.15 | 0.15 | 77 | 1020.5 |
| 20260830041905 | 14 | 237 | 3.2 | 9.7 | 0.00 | 0.15 | 0.15 | 77 | 1020.5 |
| 20260830041404 | 15 | 219 | 3.2 | 9.7 | 0.00 | 0.15 | 0.15 | 77 | 1020.4 |
| 20260830040903 | 15 | 257 | 1.6 | 6.4 | 0.00 | 0.15 | 0.15 | 76 | 1020.4 |
| 20260830040403 | 15 | 236 | 1.6 | 8.0 | 0.00 | 0.15 | 0.15 | 76 | 1020.3 |
| 20260830035903 | 15 | 215 | 3.2 | 9.7 | 0.00 | 0.15 | 0.15 | 76 | 1020.2 |
| 20260830035402 | 15 | 252 | 1.6 | 9.7 | 0.00 | 0.15 | 0.15 | 75 | 1020.2 |
| 20260830034903 | 15 | 250 | 1.6 | 4.8 | 0.00 | 0.15 | 0.15 | 74 | 1020.2 |
| 20260830034403 | 15 | 249 | 1.6 | 6.4 | 0.00 | 0.15 | 0.15 | 71 | 1020.1 |
| 20260830033909 | 15 | 227 | 0.0 | 6.4 | 0.00 | 0.15 | 0.15 | 67 | 1020.0 |
| 20260830033902 | 15 | 245 | 1.6 | 6.4 | 0.00 | 0.15 | 0.15 | 68 | 1020.1 |
| 20260830033403 | 15 | 265 | 1.6 | 6.4 | 0.00 | 0.15 | 0.15 | 68 | 1020.0 |
| 20260830032403 | 15 | 246 | 1.6 | 8.0 | 0.00 | 0.15 | 0.15 | 66 | 1019.9 |
| 20260830031904 | 15 | 245 | 1.6 | 8.0 | 0.00 | 0.15 | 0.15 | 65 | 1019.9 |
| 20260830031403 | 16 | 239 | 1.6 | 6.4 | 0.00 | 0.15 | 0.15 | 64 | 1019.8 |